Weather History for KJES - January, 2014

Change the Weather History Date:

Friday, January 3, 2014

  Actual Average (KLHW) Record (KLHW)
Temperature  
Mean Temperature 35 °F -  
Max Temperature 42 °F 61 °F 77 °F (2000)
Min Temperature 28 °F 42 °F 18 °F (1979)
Degree Days  
Heating Degree Days 30    
Moisture  
Dew Point 23 °F    
Average Humidity 66    
Maximum Humidity 100    
Minimum Humidity 42    
Precipitation  
Precipitation 0.00 in - - ()
Sea Level Pressure  
Sea Level Pressure 30.27 in    
Wind  
Wind Speed 11 mph (North)    
Max Wind Speed 24 mph    
Max Gust Speed 40 mph    
Visibility 10 miles    
Events      
Averages and records for this station are not official NWS values.
T = Trace of Precipitation, MM = Missing Value Source: NWS Daily Summary

Daily Weather History Graph

Daily Weather History Graph

Search for Another Location

Airport or City:

Trip Planner

Search our weather history database for the weather conditions in past years. The results will help you decide how hot, cold, wet, or windy it might be!

Date:

Astronomy

Jan. 03, 2014 Rise Set
Actual Time 7:27 AM EST 5:36 PM EST
Civil Twilight 7:00 AM EST 6:03 PM EST
Nautical Twilight 6:30 AM EST 6:33 PM EST
Astronomical Twilight 6:00 AM EST 7:03 PM EST
Moon 9:03 AM EST (1/3) 8:32 PM EST (1/3)
Length of Visible Light 11h 02m
Length of Day
10h 09m
Waxing Crescent, 8% of the Moon is Illuminated
Jan 3
Waxing Crescent
Jan 7
First Quarter
Jan 15
Full
Jan 24
Last Quarter
Jan 30
New

Hourly Weather History & Observations

Time (EST) Temp. Windchill Dew Point Humidity Pressure Visibility Wind Dir Wind Speed Gust Speed Precip Events Conditions
12:15 AM 42.8 °F 37.0 °F 33.8 °F 70% 29.98 in 10.0 mi NW 10.4 mph 19.6 mph N/A   Clear
12:35 AM 42.8 °F 36.6 °F 35.6 °F 76% 29.98 in 10.0 mi NW 11.5 mph 19.6 mph N/A   Clear
12:55 AM 41.0 °F 32.2 °F 32.0 °F 70% 29.99 in 10.0 mi NW 18.4 mph 26.5 mph N/A   Clear
1:15 AM 41.0 °F 32.2 °F 30.2 °F 65% 30.00 in 10.0 mi NW 18.4 mph 25.3 mph N/A   Clear
1:35 AM 39.2 °F 30.8 °F 30.2 °F 70% 30.01 in 10.0 mi NW 15.0 mph 25.3 mph N/A   Clear
1:55 AM 37.4 °F 28.5 °F 30.2 °F 75% 30.03 in 10.0 mi NNW 15.0 mph 23.0 mph N/A   Clear
2:15 AM 37.4 °F 26.6 °F 28.4 °F 70% 30.04 in 10.0 mi NNW 21.9 mph 29.9 mph N/A   Clear
2:35 AM 35.6 °F 25.9 °F 28.4 °F 75% 30.06 in 10.0 mi NNW 16.1 mph 28.8 mph N/A   Clear
2:55 AM 35.6 °F 25.2 °F 28.4 °F 75% 30.08 in 10.0 mi NW 18.4 mph 27.6 mph N/A   Clear
3:15 AM 33.8 °F 21.9 °F 23.0 °F 65% 30.09 in 10.0 mi NW 21.9 mph 40.3 mph N/A   Clear
3:35 AM 32.0 °F 18.9 °F 23.0 °F 69% 30.11 in 10.0 mi NW 24.2 mph 32.2 mph N/A   Clear
3:55 AM 32.0 °F 20.8 °F 23.0 °F 69% 30.12 in 10.0 mi NNW 17.3 mph 27.6 mph N/A   Clear
4:15 AM 32.0 °F 22.1 °F 23.0 °F 69% 30.13 in 10.0 mi NNW 13.8 mph 23.0 mph N/A   Clear
4:35 AM 32.0 °F 21.6 °F 23.0 °F 69% 30.14 in 10.0 mi NNW 15.0 mph 28.8 mph N/A   Clear
4:55 AM 32.0 °F 22.5 °F 23.0 °F 69% 30.15 in 10.0 mi NNW 12.7 mph 20.7 mph N/A   Clear
5:15 AM 32.0 °F 21.6 °F 21.2 °F 64% 30.16 in 10.0 mi NNW 15.0 mph 21.9 mph N/A   Clear
5:35 AM 30.2 °F 19.8 °F 21.2 °F 69% 30.17 in 10.0 mi NNW 13.8 mph 20.7 mph N/A   Clear
5:55 AM 30.2 °F 23.4 °F 21.2 °F 69% 30.19 in 10.0 mi NNW 6.9 mph 18.4 mph N/A   Clear
6:15 AM 30.2 °F 22.6 °F 21.2 °F 69% 30.19 in 10.0 mi NNW 8.1 mph 18.4 mph N/A   Clear
6:35 AM 30.2 °F 22.6 °F 21.2 °F 69% 30.21 in 10.0 mi NNW 8.1 mph 17.3 mph N/A   Clear
6:55 AM 30.2 °F 21.9 °F 21.2 °F 69% 30.22 in 10.0 mi NNW 9.2 mph - N/A   Clear
7:15 AM 30.2 °F 22.6 °F 21.2 °F 69% 30.24 in 10.0 mi NNW 8.1 mph - N/A   Clear
7:35 AM 30.2 °F 22.6 °F 19.4 °F 64% 30.26 in 10.0 mi NNW 8.1 mph - N/A   Clear
7:55 AM 30.2 °F 24.3 °F 19.4 °F 64% 30.27 in 10.0 mi NNW 5.8 mph - N/A   Clear
8:15 AM 30.2 °F 21.9 °F 19.4 °F 64% 30.28 in 10.0 mi NNW 9.2 mph - N/A   Clear
8:35 AM 30.2 °F 19.3 °F 19.4 °F 64% 30.29 in 10.0 mi North 15.0 mph - N/A   Clear
8:55 AM 30.2 °F 19.8 °F 19.4 °F 64% 30.31 in 10.0 mi North 13.8 mph 21.9 mph N/A   Clear
9:15 AM 32.0 °F 24.2 °F 19.4 °F 60% 30.32 in 10.0 mi North 9.2 mph 20.7 mph N/A   Clear
9:35 AM 32.0 °F 22.5 °F 19.4 °F 60% 30.32 in 10.0 mi North 12.7 mph 19.6 mph N/A   Clear
9:55 AM 32.0 °F 23.0 °F 19.4 °F 60% 30.33 in 10.0 mi North 11.5 mph 17.3 mph N/A   Clear
10:15 AM 32.0 °F 23.0 °F 19.4 °F 60% 30.34 in 10.0 mi North 11.5 mph 19.6 mph N/A   Clear
10:35 AM 32.0 °F 24.2 °F 19.4 °F 60% 30.34 in 10.0 mi North 9.2 mph 16.1 mph N/A   Clear
10:55 AM 33.8 °F 26.4 °F 19.4 °F 56% 30.34 in 10.0 mi North 9.2 mph - N/A   Clear
11:15 AM 33.8 °F 24.8 °F 19.4 °F 56% 30.33 in 10.0 mi North 12.7 mph 21.9 mph N/A   Clear
11:35 AM 33.8 °F 25.8 °F 19.4 °F 56% 30.33 in 10.0 mi North 10.4 mph 19.6 mph N/A   Clear
11:55 AM 33.8 °F 27.0 °F 19.4 °F 56% 30.32 in 10.0 mi North 8.1 mph 16.1 mph N/A   Clear
12:15 PM 35.6 °F 29.2 °F 19.4 °F 52% 30.32 in 10.0 mi North 8.1 mph 19.6 mph N/A   Clear
12:35 PM 37.4 °F 28.5 °F 19.4 °F 48% 30.31 in 10.0 mi NE 15.0 mph 19.6 mph N/A   Clear
12:55 PM 37.4 °F 30.8 °F 19.4 °F 48% 30.31 in 10.0 mi NNE 9.2 mph 18.4 mph N/A   Clear
1:15 PM 37.4 °F 29.8 °F 19.4 °F 48% 30.29 in 10.0 mi NNE 11.5 mph 21.9 mph N/A   Clear
1:35 PM 37.4 °F 29.3 °F 19.4 °F 48% 30.29 in 10.0 mi NNE 12.7 mph 18.4 mph N/A   Clear
1:55 PM 39.2 °F 32.0 °F 19.4 °F 45% 30.29 in 10.0 mi NNE 11.5 mph 17.3 mph N/A   Clear
2:15 PM 39.2 °F 32.0 °F 19.4 °F 45% 30.29 in 10.0 mi NNE 11.5 mph 18.4 mph N/A   Clear
2:35 PM 41.0 °F 33.9 °F 19.4 °F 42% 30.29 in 10.0 mi NE 12.7 mph 18.4 mph N/A   Clear
2:55 PM 41.0 °F 34.7 °F 19.4 °F 42% 30.30 in 10.0 mi NNE 10.4 mph - N/A   Clear
3:15 PM 41.0 °F 34.7 °F 19.4 °F 42% 30.30 in 10.0 mi NNE 10.4 mph 16.1 mph N/A   Clear
3:35 PM 41.0 °F 35.8 °F 21.2 °F 45% 30.32 in 10.0 mi North 8.1 mph - N/A   Clear
3:55 PM 41.0 °F 35.8 °F 21.2 °F 45% 30.32 in 10.0 mi NNE 8.1 mph - N/A   Clear
4:15 PM 41.0 °F 36.4 °F 21.2 °F 45% 30.32 in 10.0 mi NE 6.9 mph - N/A   Clear
4:35 PM 41.0 °F 36.4 °F 21.2 °F 45% 30.33 in 10.0 mi NE 6.9 mph - N/A   Clear
4:55 PM 41.0 °F 35.8 °F 21.2 °F 45% 30.33 in 10.0 mi NNE 8.1 mph - N/A   Scattered Clouds
5:15 PM 39.2 °F 37.0 °F 21.2 °F 49% 30.34 in 10.0 mi NNE 3.5 mph - N/A   Clear
5:35 PM 37.4 °F 34.9 °F 23.0 °F 56% 30.35 in 10.0 mi NE 3.5 mph - N/A   Clear
5:55 PM 35.6 °F 32.8 °F 23.0 °F 60% 30.36 in 10.0 mi NE 3.5 mph - N/A   Clear
6:15 PM 35.6 °F 32.8 °F 23.0 °F 60% 30.37 in 10.0 mi NE 3.5 mph - N/A   Clear
6:35 PM 33.8 °F - 23.0 °F 65% 30.36 in 10.0 mi Calm Calm - N/A   Clear
6:55 PM 32.0 °F - 24.8 °F 75% 30.37 in 10.0 mi Calm Calm - N/A   Clear
7:15 PM 30.2 °F - 26.6 °F 86% 30.38 in 10.0 mi Calm Calm - N/A   Clear
7:35 PM 30.2 °F - 26.6 °F 86% 30.39 in 10.0 mi Calm Calm - N/A   Clear
7:55 PM 30.2 °F - 28.4 °F 93% 30.39 in 10.0 mi Calm Calm - N/A   Clear
8:15 PM 28.4 °F - 28.4 °F 100% 30.39 in 10.0 mi Calm Calm - N/A   Clear
8:35 PM 28.4 °F - 28.4 °F 100% 30.40 in 10.0 mi Calm Calm - N/A   Clear
8:55 PM 28.4 °F - 28.4 °F 100% 30.40 in 10.0 mi Calm Calm - N/A   Clear
9:15 PM 28.4 °F - 28.4 °F 100% 30.40 in 10.0 mi Calm Calm - N/A   Clear
9:35 PM 30.2 °F 26.7 °F 28.4 °F 93% 30.40 in 10.0 mi East 3.5 mph - N/A   Clear
9:55 PM 30.2 °F 26.7 °F 26.6 °F 86% 30.40 in 10.0 mi ENE 3.5 mph - N/A   Clear
10:15 PM 30.2 °F - 24.8 °F 80% 30.40 in 10.0 mi Calm Calm - N/A   Clear
10:35 PM 30.2 °F - 24.8 °F 80% 30.41 in 10.0 mi Calm Calm - N/A   Clear
10:55 PM 30.2 °F 25.4 °F 24.8 °F 80% 30.40 in 10.0 mi NE 4.6 mph - N/A   Clear
11:15 PM 32.0 °F 27.5 °F 23.0 °F 69% 30.40 in 10.0 mi NE 4.6 mph - N/A   Clear
11:35 PM 32.0 °F 26.4 °F 23.0 °F 69% 30.39 in 10.0 mi NE 5.8 mph - N/A   Clear
11:55 PM 32.0 °F 26.4 °F 23.0 °F 69% 30.39 in 10.0 mi NE 5.8 mph - N/A   Mostly Cloudy